2019-040T00:06:30.795,   1,   3,   1,   300,   4,          0,     12.988,  47482.516,    48.018,    -5.590,     1.381,   306.970, 3, 1.000E+00,  1.00,  78,  1.897E-03,  2.865E-03, -9.999E+09, -9.999E+09, -9.999E+09, -9.999E+09, -9.999E+09, -9.999E+09, -9.999E+09, -9.999E+09, -9.999E+09, -9.999E+09, -9.999E+09, -9.999E+09, -9.999E+09, -9.999E+09, -9.999E+09, -9.999E+09, 255
2019-040T00:11:30.798,   1,   3,   1,   300,   4,          0,     12.988,  47482.516,    47.991,    -5.584,     1.380,   303.947, 3, 1.000E+00,  1.00,  78,  1.684E-03,  2.865E-03, -9.999E+09, -9.999E+09, -9.999E+09, -9.999E+09, -9.999E+09, -9.999E+09, -9.999E+09, -9.999E+09, -9.999E+09, -9.999E+09, -9.999E+09, -9.999E+09, -9.999E+09, -9.999E+09, -9.999E+09, -9.999E+09, 255
2019-040T00:16:30.802,   1,   3,   1,   300,   4,          0,     12.988,  47482.516,    47.964,    -5.577,     1.380,   300.923, 3, 1.000E+00,  1.00,  78,  1.961E-03,  2.865E-03, -9.999E+09, -9.999E+09, -9.999E+09, -9.999E+09, -9.999E+09, -9.999E+09, -9.999E+09, -9.999E+09, -9.999E+09, -9.999E+09, -9.999E+09, -9.999E+09, -9.999E+09, -9.999E+09, -9.999E+09, -9.999E+09, 255
2019-040T00:21:30.805,   1,   3,   1,   300,   4,          0,     12.988,  47482.516,    47.938,    -5.571,     1.380,   297.899, 3, 1.000E+00,  1.00,  78,  1.809E-03,  2.865E-03, -9.999E+09, -9.999E+09, -9.999E+09, -9.999E+09, -9.999E+09, -9.999E+09, -9.999E+09, -9.999E+09, -9.999E+09, -9.999E+09, -9.999E+09, -9.999E+09, -9.999E+09, -9.999E+09, -9.999E+09, -9.999E+09, 255
2019-040T00:26:30.809,   1,   3,   1,   300,   4,          0,     12.988,  47482.516,    47.911,    -5.565,     1.380,   294.875, 3, 1.000E+00,  1.00,  78,  1.456E-03,  2.865E-03, -9.999E+09, -9.999E+09, -9.999E+09, -9.999E+09, -9.999E+09, -9.999E+09, -9.999E+09, -9.999E+09, -9.999E+09, -9.999E+09, -9.999E+09, -9.999E+09, -9.999E+09, -9.999E+09, -9.999E+09, -9.999E+09, 255
2019-040T00:31:30.812,   1,   3,   1,   300,   4,          0,     12.988,  47482.516,    47.884,    -5.559,     1.380,   291.851, 3, 1.000E+00,  1.00,  78,  1.692E-03,  2.865E-03, -9.999E+09, -9.999E+09, -9.999E+09, -9.999E+09, -9.999E+09, -9.999E+09, -9.999E+09, -9.999E+09, -9.999E+09, -9.999E+09, -9.999E+09, -9.999E+09, -9.999E+09, -9.999E+09, -9.999E+09, -9.999E+09, 255
2019-040T00:36:30.816,   1,   3,   1,   300,   4,          0,     12.988,  47482.516,    47.857,    -5.553,     1.380,   288.827, 3, 1.000E+00,  1.00,  78,  1.612E-03,  2.865E-03, -9.999E+09, -9.999E+09, -9.999E+09, -9.999E+09, -9.999E+09, -9.999E+09, -9.999E+09, -9.999E+09, -9.999E+09, -9.999E+09, -9.999E+09, -9.999E+09, -9.999E+09, -9.999E+09, -9.999E+09, -9.999E+09, 255
2019-040T00:41:30.819,   1,   3,   1,   300,   4,          0,     12.988,  47482.516,    47.830,    -5.546,     1.380,   285.803, 3, 1.000E+00,  1.00,  78,  2.079E-03,  2.865E-03, -9.999E+09, -9.999E+09, -9.999E+09, -9.999E+09, -9.999E+09, -9.999E+09, -9.999E+09, -9.999E+09, -9.999E+09, -9.999E+09, -9.999E+09, -9.999E+09, -9.999E+09, -9.999E+09, -9.999E+09, -9.999E+09, 255
2019-040T00:46:30.823,   1,   3,   1,   300,   4,          0,     12.988,  47482.516,    47.803,    -5.540,     1.380,   282.780, 3, 1.000E+00,  1.00,  78,  2.982E-03,  2.866E-03, -9.999E+09, -9.999E+09, -9.999E+09, -9.999E+09, -9.999E+09, -9.999E+09, -9.999E+09, -9.999E+09, -9.999E+09, -9.999E+09, -9.999E+09, -9.999E+09, -9.999E+09, -9.999E+09, -9.999E+09, -9.999E+09, 255
2019-040T00:51:30.826,   1,   3,   1,   300,   4,          0,     12.988,  47482.516,    47.776,    -5.534,     1.380,   279.756, 3, 1.000E+00,  1.00,  78,  3.359E-03,  2.866E-03, -9.999E+09, -9.999E+09, -9.999E+09, -9.999E+09, -9.999E+09, -9.999E+09, -9.999E+09, -9.999E+09, -9.999E+09, -9.999E+09, -9.999E+09, -9.999E+09, -9.999E+09, -9.999E+09, -9.999E+09, -9.999E+09, 255
2019-040T00:56:30.830,   1,   3,   1,   300,   4,          0,     12.988,  47482.516,    47.749,    -5.528,     1.379,   276.732, 3, 1.000E+00,  1.00,  78,  3.846E-03,  2.866E-03, -9.999E+09, -9.999E+09, -9.999E+09, -9.999E+09, -9.999E+09, -9.999E+09, -9.999E+09, -9.999E+09, -9.999E+09, -9.999E+09, -9.999E+09, -9.999E+09, -9.999E+09, -9.999E+09, -9.999E+09, -9.999E+09, 255
2019-040T01:01:30.833,   1,   3,   1,   300,   4,          0,     12.988,  47482.516,    47.722,    -5.521,     1.379,   273.708, 3, 1.000E+00,  1.00,  78,  5.416E-03,  2.867E-03, -9.999E+09, -9.999E+09, -9.999E+09, -9.999E+09, -9.999E+09, -9.999E+09, -9.999E+09, -9.999E+09, -9.999E+09, -9.999E+09, -9.999E+09, -9.999E+09, -9.999E+09, -9.999E+09, -9.999E+09, -9.999E+09, 255
2019-040T01:06:30.837,   1,   3,   1,   300,   4,          0,     12.988,  47482.516,    47.695,    -5.515,     1.379,   270.684, 3, 1.000E+00,  1.00,  78,  4.435E-03,  2.866E-03, -9.999E+09, -9.999E+09, -9.999E+09, -9.999E+09, -9.999E+09, -9.999E+09, -9.999E+09, -9.999E+09, -9.999E+09, -9.999E+09, -9.999E+09, -9.999E+09, -9.999E+09, -9.999E+09, -9.999E+09, -9.999E+09, 255
2019-040T01:11:30.840,   1,   3,   1,   300,   4,          0,     12.988,  47482.516,    47.668,    -5.509,     1.379,   267.660, 3, 1.000E+00,  1.00,  78,  5.285E-03,  2.866E-03, -9.999E+09, -9.999E+09, -9.999E+09, -9.999E+09, -9.999E+09, -9.999E+09, -9.999E+09, -9.999E+09, -9.999E+09, -9.999E+09, -9.999E+09, -9.999E+09, -9.999E+09, -9.999E+09, -9.999E+09, -9.999E+09, 255
2019-040T01:16:30.844,   1,   3,   1,   300,   4,          0,     12.988,  47482.516,    47.641,    -5.502,     1.379,   264.636, 3, 1.000E+00,  1.00,  78,  4.975E-03,  2.866E-03, -9.999E+09, -9.999E+09, -9.999E+09, -9.999E+09, -9.999E+09, -9.999E+09, -9.999E+09, -9.999E+09, -9.999E+09, -9.999E+09, -9.999E+09, -9.999E+09, -9.999E+09, -9.999E+09, -9.999E+09, -9.999E+09, 255
2019-040T01:21:30.847,   1,   3,   1,   300,   4,          0,     12.988,  47482.516,    47.613,    -5.496,     1.379,   261.613, 3, 1.000E+00,  1.00,  78,  4.911E-03,  2.866E-03, -9.999E+09, -9.999E+09, -9.999E+09, -9.999E+09, -9.999E+09, -9.999E+09, -9.999E+09, -9.999E+09, -9.999E+09, -9.999E+09, -9.999E+09, -9.999E+09, -9.999E+09, -9.999E+09, -9.999E+09, -9.999E+09, 255
2019-040T01:26:30.851,   1,   3,   1,   300,   4,          0,     12.988,  47482.516,    47.586,    -5.490,     1.379,   258.589, 3, 1.000E+00,  1.00,  78,  5.394E-03,  2.867E-03, -9.999E+09, -9.999E+09, -9.999E+09, -9.999E+09, -9.999E+09, -9.999E+09, -9.999E+09, -9.999E+09, -9.999E+09, -9.999E+09, -9.999E+09, -9.999E+09, -9.999E+09, -9.999E+09, -9.999E+09, -9.999E+09, 255
2019-040T01:31:30.854,   1,   3,   1,   300,   4,          0,     12.988,  47482.516,    47.559,    -5.484,     1.379,   255.565, 3, 1.000E+00,  1.00,  78,  5.390E-03,  2.866E-03, -9.999E+09, -9.999E+09, -9.999E+09, -9.999E+09, -9.999E+09, -9.999E+09, -9.999E+09, -9.999E+09, -9.999E+09, -9.999E+09, -9.999E+09, -9.999E+09, -9.999E+09, -9.999E+09, -9.999E+09, -9.999E+09, 255
2019-040T01:36:30.858,   1,   3,   1,   300,   4,          0,     12.988,  47482.516,    47.532,    -5.477,     1.379,   252.541, 3, 1.000E+00,  1.00,  78,  5.376E-03,  2.867E-03, -9.999E+09, -9.999E+09, -9.999E+09, -9.999E+09, -9.999E+09, -9.999E+09, -9.999E+09, -9.999E+09, -9.999E+09, -9.999E+09, -9.999E+09, -9.999E+09, -9.999E+09, -9.999E+09, -9.999E+09, -9.999E+09, 255
2019-040T01:41:30.861,   1,   3,   1,   300,   4,          0,     12.988,  47482.516,    47.505,    -5.471,     1.379,   249.517, 3, 1.000E+00,  1.00,  78,  5.258E-03,  2.866E-03, -9.999E+09, -9.999E+09, -9.999E+09, -9.999E+09, -9.999E+09, -9.999E+09, -9.999E+09, -9.999E+09, -9.999E+09, -9.999E+09, -9.999E+09, -9.999E+09, -9.999E+09, -9.999E+09, -9.999E+09, -9.999E+09, 255
2019-040T01:46:30.865,   1,   3,   1,   300,   4,          0,     12.988,  47482.516,    47.478,    -5.465,     1.379,   246.493, 3, 1.000E+00,  1.00,  78,  5.014E-03,  2.866E-03, -9.999E+09, -9.999E+09, -9.999E+09, -9.999E+09, -9.999E+09, -9.999E+09, -9.999E+09, -9.999E+09, -9.999E+09, -9.999E+09, -9.999E+09, -9.999E+09, -9.999E+09, -9.999E+09, -9.999E+09, -9.999E+09, 255
2019-040T01:51:30.868,   1,   3,   1,   300,   4,          0,     12.988,  47482.516,    47.451,    -5.458,     1.379,   243.469, 3, 1.000E+00,  1.00,  78,  4.874E-03,  2.866E-03, -9.999E+09, -9.999E+09, -9.999E+09, -9.999E+09, -9.999E+09, -9.999E+09, -9.999E+09, -9.999E+09, -9.999E+09, -9.999E+09, -9.999E+09, -9.999E+09, -9.999E+09, -9.999E+09, -9.999E+09, -9.999E+09, 255
2019-040T01:56:30.872,   1,   3,   1,   300,   4,          0,     12.988,  47482.516,    47.423,    -5.452,     1.378,   240.446, 3, 1.000E+00,  1.00,  78,  4.944E-03,  2.866E-03, -9.999E+09, -9.999E+09, -9.999E+09, -9.999E+09, -9.999E+09, -9.999E+09, -9.999E+09, -9.999E+09, -9.999E+09, -9.999E+09, -9.999E+09, -9.999E+09, -9.999E+09, -9.999E+09, -9.999E+09, -9.999E+09, 255
2019-040T02:01:30.875,   1,   3,   1,   300,   4,          0,     12.988,  47482.516,    47.396,    -5.446,     1.378,   237.422, 3, 1.000E+00,  1.00,  78,  4.902E-03,  2.866E-03, -9.999E+09, -9.999E+09, -9.999E+09, -9.999E+09, -9.999E+09, -9.999E+09, -9.999E+09, -9.999E+09, -9.999E+09, -9.999E+09, -9.999E+09, -9.999E+09, -9.999E+09, -9.999E+09, -9.999E+09, -9.999E+09, 255
2019-040T02:06:30.879,   1,   3,   1,   300,   4,          0,     12.988,  47482.516,    47.369,    -5.439,     1.378,   234.398, 3, 1.000E+00,  1.00,  78,  6.019E-03,  2.867E-03, -9.999E+09, -9.999E+09, -9.999E+09, -9.999E+09, -9.999E+09, -9.999E+09, -9.999E+09, -9.999E+09, -9.999E+09, -9.999E+09, -9.999E+09, -9.999E+09, -9.999E+09, -9.999E+09, -9.999E+09, -9.999E+09, 255
2019-040T02:11:30.882,   1,   3,   1,   300,   4,          0,     12.988,  47482.516,    47.342,    -5.433,     1.378,   231.374, 3, 1.000E+00,  1.00,  78,  7.573E-03,  2.867E-03, -9.999E+09, -9.999E+09, -9.999E+09, -9.999E+09, -9.999E+09, -9.999E+09, -9.999E+09, -9.999E+09, -9.999E+09, -9.999E+09, -9.999E+09, -9.999E+09, -9.999E+09, -9.999E+09, -9.999E+09, -9.999E+09, 255
2019-040T02:16:30.886,   1,   3,   1,   300,   4,          0,     12.988,  47482.516,    47.315,    -5.426,     1.378,   228.350, 3, 1.000E+00,  1.00,  78,  8.212E-03,  2.867E-03, -9.999E+09, -9.999E+09, -9.999E+09, -9.999E+09, -9.999E+09, -9.999E+09, -9.999E+09, -9.999E+09, -9.999E+09, -9.999E+09, -9.999E+09, -9.999E+09, -9.999E+09, -9.999E+09, -9.999E+09, -9.999E+09, 255
2019-040T02:21:30.889,   1,   3,   1,   300,   4,          0,     12.988,  47482.516,    47.287,    -5.420,     1.378,   225.326, 3, 1.000E+00,  1.00,  78,  8.133E-03,  2.867E-03, -9.999E+09, -9.999E+09, -9.999E+09, -9.999E+09, -9.999E+09, -9.999E+09, -9.999E+09, -9.999E+09, -9.999E+09, -9.999E+09, -9.999E+09, -9.999E+09, -9.999E+09, -9.999E+09, -9.999E+09, -9.999E+09, 255
2019-040T02:26:30.893,   1,   3,   1,   300,   4,          0,     12.988,  47482.516,    47.260,    -5.414,     1.378,   222.302, 3, 1.000E+00,  1.00,  78,  7.405E-03,  2.867E-03, -9.999E+09, -9.999E+09, -9.999E+09, -9.999E+09, -9.999E+09, -9.999E+09, -9.999E+09, -9.999E+09, -9.999E+09, -9.999E+09, -9.999E+09, -9.999E+09, -9.999E+09, -9.999E+09, -9.999E+09, -9.999E+09, 255
2019-040T02:31:30.896,   1,   3,   1,   300,   4,          0,     12.988,  47482.516,    47.233,    -5.407,     1.378,   219.278, 3, 1.000E+00,  1.00,  78,  7.664E-03,  2.867E-03, -9.999E+09, -9.999E+09, -9.999E+09, -9.999E+09, -9.999E+09, -9.999E+09, -9.999E+09, -9.999E+09, -9.999E+09, -9.999E+09, -9.999E+09, -9.999E+09, -9.999E+09, -9.999E+09, -9.999E+09, -9.999E+09, 255
2019-040T02:36:30.899,   1,   3,   1,   300,   4,          0,     12.988,  47482.516,    47.206,    -5.401,     1.378,   216.255, 3, 1.000E+00,  1.00,  78,  6.783E-03,  2.867E-03, -9.999E+09, -9.999E+09, -9.999E+09, -9.999E+09, -9.999E+09, -9.999E+09, -9.999E+09, -9.999E+09, -9.999E+09, -9.999E+09, -9.999E+09, -9.999E+09, -9.999E+09, -9.999E+09, -9.999E+09, -9.999E+09, 255
2019-040T02:41:30.903,   1,   3,   1,   300,   4,          0,     12.988,  47482.516,    47.178,    -5.394,     1.378,   213.231, 3, 1.000E+00,  1.00,  78,  6.782E-03,  2.867E-03, -9.999E+09, -9.999E+09, -9.999E+09, -9.999E+09, -9.999E+09, -9.999E+09, -9.999E+09, -9.999E+09, -9.999E+09, -9.999E+09, -9.999E+09, -9.999E+09, -9.999E+09, -9.999E+09, -9.999E+09, -9.999E+09, 255
2019-040T02:46:30.906,   1,   3,   1,   300,   4,          0,     12.988,  47482.516,    47.151,    -5.388,     1.378,   210.207, 3, 1.000E+00,  1.00,  78,  5.874E-03,  2.867E-03, -9.999E+09, -9.999E+09, -9.999E+09, -9.999E+09, -9.999E+09, -9.999E+09, -9.999E+09, -9.999E+09, -9.999E+09, -9.999E+09, -9.999E+09, -9.999E+09, -9.999E+09, -9.999E+09, -9.999E+09, -9.999E+09, 255
2019-040T02:51:30.910,   1,   3,   1,   300,   4,          0,     12.988,  47482.516,    47.124,    -5.382,     1.378,   207.183, 3, 1.000E+00,  1.00,  78,  5.194E-03,  2.866E-03, -9.999E+09, -9.999E+09, -9.999E+09, -9.999E+09, -9.999E+09, -9.999E+09, -9.999E+09, -9.999E+09, -9.999E+09, -9.999E+09, -9.999E+09, -9.999E+09, -9.999E+09, -9.999E+09, -9.999E+09, -9.999E+09, 255
2019-040T02:56:30.913,   1,   3,   1,   300,   4,          0,     12.988,  47482.516,    47.096,    -5.375,     1.377,   204.159, 3, 1.000E+00,  1.00,  78,  5.200E-03,  2.866E-03, -9.999E+09, -9.999E+09, -9.999E+09, -9.999E+09, -9.999E+09, -9.999E+09, -9.999E+09, -9.999E+09, -9.999E+09, -9.999E+09, -9.999E+09, -9.999E+09, -9.999E+09, -9.999E+09, -9.999E+09, -9.999E+09, 255
2019-040T03:01:30.917,   1,   3,   1,   300,   4,          0,     12.988,  47482.516,    47.069,    -5.369,     1.377,   201.135, 3, 1.000E+00,  1.00,  78,  7.058E-03,  2.867E-03, -9.999E+09, -9.999E+09, -9.999E+09, -9.999E+09, -9.999E+09, -9.999E+09, -9.999E+09, -9.999E+09, -9.999E+09, -9.999E+09, -9.999E+09, -9.999E+09, -9.999E+09, -9.999E+09, -9.999E+09, -9.999E+09, 255
2019-040T03:06:30.920,   1,   3,   1,   300,   4,          0,     12.988,  47482.516,    47.042,    -5.362,     1.377,   198.111, 3, 1.000E+00,  1.00,  78,  8.775E-03,  2.868E-03, -9.999E+09, -9.999E+09, -9.999E+09, -9.999E+09, -9.999E+09, -9.999E+09, -9.999E+09, -9.999E+09, -9.999E+09, -9.999E+09, -9.999E+09, -9.999E+09, -9.999E+09, -9.999E+09, -9.999E+09, -9.999E+09, 255
2019-040T03:11:30.924,   1,   3,   1,   300,   4,          0,     12.988,  47482.516,    47.014,    -5.356,     1.377,   195.087, 3, 1.000E+00,  1.00,  78,  9.055E-03,  2.868E-03, -9.999E+09, -9.999E+09, -9.999E+09, -9.999E+09, -9.999E+09, -9.999E+09, -9.999E+09, -9.999E+09, -9.999E+09, -9.999E+09, -9.999E+09, -9.999E+09, -9.999E+09, -9.999E+09, -9.999E+09, -9.999E+09, 255
2019-040T03:16:30.927,   1,   3,   1,   300,   4,          0,     12.988,  47482.516,    46.987,    -5.349,     1.377,   192.063, 3, 1.000E+00,  1.00,  78,  7.911E-03,  2.868E-03, -9.999E+09, -9.999E+09, -9.999E+09, -9.999E+09, -9.999E+09, -9.999E+09, -9.999E+09, -9.999E+09, -9.999E+09, -9.999E+09, -9.999E+09, -9.999E+09, -9.999E+09, -9.999E+09, -9.999E+09, -9.999E+09, 255
2019-040T03:21:30.931,   1,   3,   1,   300,   4,          0,     12.988,  47482.516,    46.959,    -5.343,     1.377,   189.040, 3, 1.000E+00,  1.00,  78,  7.812E-03,  2.868E-03, -9.999E+09, -9.999E+09, -9.999E+09, -9.999E+09, -9.999E+09, -9.999E+09, -9.999E+09, -9.999E+09, -9.999E+09, -9.999E+09, -9.999E+09, -9.999E+09, -9.999E+09, -9.999E+09, -9.999E+09, -9.999E+09, 255
2019-040T03:26:30.934,   1,   3,   1,   300,   4,          0,     12.988,  47482.516,    46.932,    -5.336,     1.377,   186.016, 3, 1.000E+00,  1.00,  78,  7.637E-03,  2.867E-03, -9.999E+09, -9.999E+09, -9.999E+09, -9.999E+09, -9.999E+09, -9.999E+09, -9.999E+09, -9.999E+09, -9.999E+09, -9.999E+09, -9.999E+09, -9.999E+09, -9.999E+09, -9.999E+09, -9.999E+09, -9.999E+09, 255
2019-040T03:31:30.938,   1,   3,   1,   300,   4,          0,     12.988,  47482.516,    46.905,    -5.330,     1.377,   182.992, 3, 1.000E+00,  1.00,  78,  8.288E-03,  2.867E-03, -9.999E+09, -9.999E+09, -9.999E+09, -9.999E+09, -9.999E+09, -9.999E+09, -9.999E+09, -9.999E+09, -9.999E+09, -9.999E+09, -9.999E+09, -9.999E+09, -9.999E+09, -9.999E+09, -9.999E+09, -9.999E+09, 255
2019-040T03:36:30.941,   1,   3,   1,   300,   4,          0,     12.988,  47482.516,    46.877,    -5.323,     1.376,   179.968, 3, 1.000E+00,  1.00,  78,  7.091E-03,  2.867E-03, -9.999E+09, -9.999E+09, -9.999E+09, -9.999E+09, -9.999E+09, -9.999E+09, -9.999E+09, -9.999E+09, -9.999E+09, -9.999E+09, -9.999E+09, -9.999E+09, -9.999E+09, -9.999E+09, -9.999E+09, -9.999E+09, 255
2019-040T03:41:30.945,   1,   3,   1,   300,   4,          0,     12.988,  47482.516,    46.850,    -5.317,     1.376,   176.944, 3, 1.000E+00,  1.00,  78,  9.834E-03,  2.868E-03, -9.999E+09, -9.999E+09, -9.999E+09, -9.999E+09, -9.999E+09, -9.999E+09, -9.999E+09, -9.999E+09, -9.999E+09, -9.999E+09, -9.999E+09, -9.999E+09, -9.999E+09, -9.999E+09, -9.999E+09, -9.999E+09, 255
2019-040T03:46:30.948,   1,   3,   1,   300,   4,          0,     12.988,  47482.516,    46.822,    -5.310,     1.376,   173.920, 3, 1.000E+00,  1.00,  78,  9.615E-03,  2.868E-03, -9.999E+09, -9.999E+09, -9.999E+09, -9.999E+09, -9.999E+09, -9.999E+09, -9.999E+09, -9.999E+09, -9.999E+09, -9.999E+09, -9.999E+09, -9.999E+09, -9.999E+09, -9.999E+09, -9.999E+09, -9.999E+09, 255
2019-040T03:51:30.952,   1,   3,   1,   300,   4,          0,     12.988,  47482.516,    46.795,    -5.304,     1.376,   170.896, 3, 1.000E+00,  1.00,  78,  8.254E-03,  2.868E-03, -9.999E+09, -9.999E+09, -9.999E+09, -9.999E+09, -9.999E+09, -9.999E+09, -9.999E+09, -9.999E+09, -9.999E+09, -9.999E+09, -9.999E+09, -9.999E+09, -9.999E+09, -9.999E+09, -9.999E+09, -9.999E+09, 255
2019-040T03:56:30.955,   1,   3,   1,   300,   4,          0,     12.988,  47482.516,    46.767,    -5.297,     1.376,   167.872, 3, 1.000E+00,  1.00,  78,  8.732E-03,  2.868E-03, -9.999E+09, -9.999E+09, -9.999E+09, -9.999E+09, -9.999E+09, -9.999E+09, -9.999E+09, -9.999E+09, -9.999E+09, -9.999E+09, -9.999E+09, -9.999E+09, -9.999E+09, -9.999E+09, -9.999E+09, -9.999E+09, 255
2019-040T04:01:30.959,   1,   3,   1,   300,   4,          0,     12.988,  47482.516,    46.740,    -5.291,     1.376,   164.848, 3, 1.000E+00,  1.00,  78,  7.683E-03,  2.867E-03, -9.999E+09, -9.999E+09, -9.999E+09, -9.999E+09, -9.999E+09, -9.999E+09, -9.999E+09, -9.999E+09, -9.999E+09, -9.999E+09, -9.999E+09, -9.999E+09, -9.999E+09, -9.999E+09, -9.999E+09, -9.999E+09, 255
2019-040T04:06:30.962,   1,   3,   1,   300,   4,          0,     12.988,  47482.516,    46.712,    -5.284,     1.376,   161.824, 3, 1.000E+00,  1.00,  78,  9.762E-03,  2.868E-03, -9.999E+09, -9.999E+09, -9.999E+09, -9.999E+09, -9.999E+09, -9.999E+09, -9.999E+09, -9.999E+09, -9.999E+09, -9.999E+09, -9.999E+09, -9.999E+09, -9.999E+09, -9.999E+09, -9.999E+09, -9.999E+09, 255
2019-040T04:11:30.966,   1,   3,   1,   300,   4,          0,     12.988,  47482.516,    46.685,    -5.278,     1.376,   158.801, 3, 1.000E+00,  1.00,  78,  9.713E-03,  2.868E-03, -9.999E+09, -9.999E+09, -9.999E+09, -9.999E+09, -9.999E+09, -9.999E+09, -9.999E+09, -9.999E+09, -9.999E+09, -9.999E+09, -9.999E+09, -9.999E+09, -9.999E+09, -9.999E+09, -9.999E+09, -9.999E+09, 255
2019-040T04:16:30.969,   1,   3,   1,   300,   4,          0,     12.988,  47482.516,    46.657,    -5.271,     1.376,   155.777, 3, 1.000E+00,  1.00,  78,  8.978E-03,  2.868E-03, -9.999E+09, -9.999E+09, -9.999E+09, -9.999E+09, -9.999E+09, -9.999E+09, -9.999E+09, -9.999E+09, -9.999E+09, -9.999E+09, -9.999E+09, -9.999E+09, -9.999E+09, -9.999E+09, -9.999E+09, -9.999E+09, 255
2019-040T04:21:30.973,   1,   3,   1,   300,   4,          0,     12.988,  47482.516,    46.630,    -5.265,     1.376,   152.753, 3, 1.000E+00,  1.00,  78,  8.276E-03,  2.867E-03, -9.999E+09, -9.999E+09, -9.999E+09, -9.999E+09, -9.999E+09, -9.999E+09, -9.999E+09, -9.999E+09, -9.999E+09, -9.999E+09, -9.999E+09, -9.999E+09, -9.999E+09, -9.999E+09, -9.999E+09, -9.999E+09, 255
2019-040T04:26:30.976,   1,   3,   1,   300,   4,          0,     12.988,  47482.516,    46.602,    -5.258,     1.376,   149.729, 3, 1.000E+00,  1.00,  78,  8.541E-03,  2.868E-03, -9.999E+09, -9.999E+09, -9.999E+09, -9.999E+09, -9.999E+09, -9.999E+09, -9.999E+09, -9.999E+09, -9.999E+09, -9.999E+09, -9.999E+09, -9.999E+09, -9.999E+09, -9.999E+09, -9.999E+09, -9.999E+09, 255
2019-040T04:31:30.980,   1,   3,   1,   300,   4,          0,     12.988,  47482.516,    46.574,    -5.252,     1.376,   146.705, 3, 1.000E+00,  1.00,  78,  8.811E-03,  2.867E-03, -9.999E+09, -9.999E+09, -9.999E+09, -9.999E+09, -9.999E+09, -9.999E+09, -9.999E+09, -9.999E+09, -9.999E+09, -9.999E+09, -9.999E+09, -9.999E+09, -9.999E+09, -9.999E+09, -9.999E+09, -9.999E+09, 255
2019-040T04:36:30.983,   1,   3,   1,   300,   4,          0,     12.988,  47482.516,    46.547,    -5.245,     1.375,   143.681, 3, 1.000E+00,  1.00,  78,  8.721E-03,  2.868E-03, -9.999E+09, -9.999E+09, -9.999E+09, -9.999E+09, -9.999E+09, -9.999E+09, -9.999E+09, -9.999E+09, -9.999E+09, -9.999E+09, -9.999E+09, -9.999E+09, -9.999E+09, -9.999E+09, -9.999E+09, -9.999E+09, 255
2019-040T04:41:30.987,   1,   3,   1,   300,   4,          0,     12.988,  47482.516,    46.519,    -5.238,     1.375,   140.657, 3, 1.000E+00,  1.00,  78,  1.091E-02,  2.869E-03, -9.999E+09, -9.999E+09, -9.999E+09, -9.999E+09, -9.999E+09, -9.999E+09, -9.999E+09, -9.999E+09, -9.999E+09, -9.999E+09, -9.999E+09, -9.999E+09, -9.999E+09, -9.999E+09, -9.999E+09, -9.999E+09, 255
2019-040T04:46:30.990,   1,   3,   1,   300,   4,          0,     12.988,  47482.516,    46.492,    -5.232,     1.375,   137.633, 3, 1.000E+00,  1.00,  78,  8.706E-03,  2.868E-03, -9.999E+09, -9.999E+09, -9.999E+09, -9.999E+09, -9.999E+09, -9.999E+09, -9.999E+09, -9.999E+09, -9.999E+09, -9.999E+09, -9.999E+09, -9.999E+09, -9.999E+09, -9.999E+09, -9.999E+09, -9.999E+09, 255
2019-040T04:51:30.994,   1,   3,   1,   300,   4,          0,     12.988,  47482.516,    46.464,    -5.225,     1.375,   134.609, 3, 1.000E+00,  1.00,  78,  9.457E-03,  2.868E-03, -9.999E+09, -9.999E+09, -9.999E+09, -9.999E+09, -9.999E+09, -9.999E+09, -9.999E+09, -9.999E+09, -9.999E+09, -9.999E+09, -9.999E+09, -9.999E+09, -9.999E+09, -9.999E+09, -9.999E+09, -9.999E+09, 255
2019-040T04:56:30.997,   1,   3,   1,   300,   4,          0,     12.988,  47482.516,    46.436,    -5.219,     1.375,   131.585, 3, 1.000E+00,  1.00,  78,  9.656E-03,  2.868E-03, -9.999E+09, -9.999E+09, -9.999E+09, -9.999E+09, -9.999E+09, -9.999E+09, -9.999E+09, -9.999E+09, -9.999E+09, -9.999E+09, -9.999E+09, -9.999E+09, -9.999E+09, -9.999E+09, -9.999E+09, -9.999E+09, 255
2019-040T05:01:31.001,   1,   3,   1,   300,   4,          0,     12.988,  47482.516,    46.409,    -5.212,     1.375,   128.561, 3, 1.000E+00,  1.00,  78,  8.369E-03,  2.868E-03, -9.999E+09, -9.999E+09, -9.999E+09, -9.999E+09, -9.999E+09, -9.999E+09, -9.999E+09, -9.999E+09, -9.999E+09, -9.999E+09, -9.999E+09, -9.999E+09, -9.999E+09, -9.999E+09, -9.999E+09, -9.999E+09, 255
2019-040T05:06:31.004,   1,   3,   1,   300,   4,          0,     12.988,  47482.516,    46.381,    -5.205,     1.375,   125.538, 3, 1.000E+00,  1.00,  78,  9.481E-03,  2.868E-03, -9.999E+09, -9.999E+09, -9.999E+09, -9.999E+09, -9.999E+09, -9.999E+09, -9.999E+09, -9.999E+09, -9.999E+09, -9.999E+09, -9.999E+09, -9.999E+09, -9.999E+09, -9.999E+09, -9.999E+09, -9.999E+09, 255
2019-040T05:11:31.008,   1,   3,   1,   300,   4,          0,     12.988,  47482.516,    46.353,    -5.199,     1.375,   122.514, 3, 1.000E+00,  1.00,  78,  9.148E-03,  2.868E-03, -9.999E+09, -9.999E+09, -9.999E+09, -9.999E+09, -9.999E+09, -9.999E+09, -9.999E+09, -9.999E+09, -9.999E+09, -9.999E+09, -9.999E+09, -9.999E+09, -9.999E+09, -9.999E+09, -9.999E+09, -9.999E+09, 255
2019-040T05:16:31.011,   1,   3,   1,   300,   4,          0,     12.988,  47482.516,    46.325,    -5.192,     1.374,   119.490, 3, 1.000E+00,  1.00,  78,  7.791E-03,  2.867E-03, -9.999E+09, -9.999E+09, -9.999E+09, -9.999E+09, -9.999E+09, -9.999E+09, -9.999E+09, -9.999E+09, -9.999E+09, -9.999E+09, -9.999E+09, -9.999E+09, -9.999E+09, -9.999E+09, -9.999E+09, -9.999E+09, 255